Home > Time Zones > World Clock > Weather > Italy > Monza > Past weeks

Flag for Italy Weather past 2 weeks in Monza, Italy

57 °F

Passing clouds.

Feels Like: 57 °F
Forecast: 60 / 67 °F
Wind: 1 mph from North

Location: Milan / Linate

Current Time: Oct 5, 2015 at 3:48:00 AM

Latest Report: Oct 5, 2015 at 3:20 AM

Visibility: N/A

Pressure: 30.04 "Hg

Humidity: 94%

Dew point: 55 °F

Location of MonzaLocation

Historic Weather in Monza — Graph


Monza temperature yesterday

Maximum temperature yesterday: 68 °F (at 2:20 PM)
Minimum temperature yesterday: 57 °F (at 11:50 PM)
Average temperature yesterday: 62 °F

Past Weeks' High & Low Weather Summary

High79 °F (Sep 20, 2:50 PM)100% (Sep 24, 1:20 AM)30.36 "Hg (Sep 24, 1:20 AM)
Low46 °F (Sep 24, 3:20 AM)32% (Sep 20, 5:50 PM)29.56 "Hg (Sep 23, 6:50 AM)
Average62 °F69%30.09 "Hg
* Reported Sep 20 2:20 AM — Oct 5 2:50 AM, Monza, Weather by CustomWeather, © 2015

Note: Actual official high and low records may vary slightly from our data, if they occured in-between our weather recording intervals... More about our weather records


Monza weather history for previous 24 hours

Time TempWeatherWind HumidityBarometerVisibility
2:50 AM
Mon, Oct 5
57 °FPassing clouds.3 mph94%30.04 "HgN/A
2:20 AM57 °FPassing clouds.1 mph94%30.04 "HgN/A
1:50 AM57 °FPassing clouds.2 mph94%30.04 "Hg5 mi
1:20 AM57 °FPassing clouds.No wind94%30.04 "Hg5 mi
12:50 AM57 °FPassing clouds.1 mph94%30.04 "Hg5 mi
12:20 AM57 °FFog.No wind94%30.07 "HgN/A
11:50 PM
Sun, Oct 4
57 °FFog.No wind100%30.07 "HgN/A
11:20 PM59 °FPassing clouds.No wind94%30.07 "HgN/A
10:50 PM59 °FPassing clouds.No wind94%30.07 "HgN/A
10:20 PM59 °FClear.No wind94%30.07 "Hg10 mi
9:50 PM59 °FClear.1 mph94%30.07 "Hg10 mi
9:20 PM59 °FClear.2 mph94%30.04 "Hg10 mi
8:50 PM61 °FClear.5 mph88%30.04 "Hg10 mi
8:20 PM61 °FClear.2 mph88%30.04 "Hg10 mi
7:50 PM61 °FSunny.3 mph88%30.04 "Hg10 mi
7:20 PM63 °FSunny.3 mph83%30.04 "Hg10 mi
6:50 PM64 °FSunny.2 mph78%30.04 "Hg10 mi
6:20 PM66 °FPassing clouds.3 mph73%30.04 "HgN/A
5:50 PM68 °FScattered clouds.3 mph69%30.04 "HgN/A
5:20 PM68 °FScattered clouds.1 mph69%30.04 "HgN/A
4:50 PM68 °FScattered clouds.3 mph73%30.04 "HgN/A
4:20 PM68 °FScattered clouds.2 mph73%30.07 "HgN/A
3:50 PM68 °FScattered clouds.5 mph73%30.07 "HgN/A
3:20 PM68 °FScattered clouds.2 mph73%30.07 "HgN/A
2:50 PM68 °FScattered clouds.1 mph73%30.07 "HgN/A
2:20 PM68 °FScattered clouds.1 mph78%30.07 "HgN/A
1:50 PM64 °FBroken clouds.3 mph83%30.09 "HgN/A
1:20 PM64 °FPartly sunny.2 mph83%30.09 "HgN/A
12:50 PM64 °FBroken clouds.2 mph83%30.09 "Hg6 mi
12:20 PM64 °FPartly sunny.3 mph83%30.09 "Hg5 mi
11:50 AM63 °FPartly sunny.3 mph88%30.09 "Hg4 mi
11:20 AM63 °FBroken clouds.6 mph88%30.09 "Hg4 mi
10:50 AM61 °FBroken clouds.6 mph94%30.09 "Hg4 mi
10:20 AM63 °FFog.7 mph88%30.09 "Hg3 mi
9:50 AM61 °FFog.9 mph94%30.09 "Hg3 mi
9:20 AM61 °FFog.7 mph94%30.09 "Hg2 mi
8:50 AM61 °FFog.7 mph94%30.09 "Hg2 mi
8:20 AM61 °FFog.6 mph94%30.07 "Hg2 mi
7:50 AM61 °FFog.7 mph94%30.07 "Hg2 mi
7:20 AM61 °FLight rain. Fog.7 mph94%30.07 "Hg2 mi
6:50 AM61 °FLight rain. Fog.9 mph94%30.07 "Hg3 mi
6:20 AM61 °FFog.10 mph94%30.07 "Hg2 mi
5:50 AM61 °FFog.9 mph94%30.07 "Hg2 mi
5:20 AM61 °FFog.10 mph94%30.07 "Hg3 mi
4:50 AM61 °FFog.9 mph94%30.07 "Hg3 mi
4:20 AM61 °FFog.7 mph94%30.07 "Hg3 mi
3:50 AM59 °FFog.12 mph94%30.07 "Hg3 mi
3:20 AM59 °FRain. Partly cloudy.12 mph100%30.07 "Hg2 mi
Weather by CustomWeather, © 2015

See weather overviewHow to use our weather pages